[Date Prev][Date Next][Thread Prev][Thread Next] - [Date Index][Thread Index][Author Index]

2 Line ISS Keps 7-21



ISS
1 25544U 98067A   01202.51206008  .00011683  00000-0  14964-3 0  2367
2 25544  51.5663 274.9805 0011969 280.4065 221.3672 15.59603035152440


----
Via the sarex mailing list at AMSAT.ORG courtesy of AMSAT-NA.
To unsubscribe, send "unsubscribe sarex" to Majordomo@amsat.org



AMSAT Top AMSAT Home